Back to catalog

GAOFEN-5

AliveScienceSSO
NORAD 43461·PAYLOAD·🇨🇳 China

Launched May 8, 2018 from Taiyuan Satellite Launch Center

Loading…

Next Passes (next 24 hours)

TLE

FreshSource: Space-Track

Epoch: Sep 14, 2026, 09:22 UTC

1 43461U 18043A   26257.39076704  .00000214  00000-0  54108-4 0  9991
2 43461  98.4686 230.9016 0002389 132.4855 227.6547 14.60656590444717

Track GAOFEN-5 in real time with AllMySat

Download on the App Store